Time,TemperatureF,DewpointF,PressureIn,WindDirection,WindDirectionDegrees,WindSpeedMPH,WindSpeedGustMPH,Humidity,HourlyPrecipIn,Conditions,Clouds,dailyrainin,SoftwareType,DateUTC
2013-01-09 00:01:00,40.8,40.0,29.60,SSE,164,3.0,3.0,97,0.00,,,0.00,WeatherCatV1.10B1784,2013-01-09 08:01:00,
2013-01-09 00:06:00,40.8,40.0,29.60,SSE,166,3.0,3.0,97,0.00,,,0.00,WeatherCatV1.10B1784,2013-01-09 08:06:00,
2013-01-09 00:11:00,41.0,40.2,29.60,SE,131,2.0,2.0,97,0.00,,,0.00,WeatherCatV1.10B1784,2013-01-09 08:11:00,
2013-01-09 00:16:00,41.1,40.3,29.60,South,182,3.0,3.0,97,0.00,,,0.00,WeatherCatV1.10B1784,2013-01-09 08:16:00,
2013-01-09 00:21:00,41.2,40.4,29.60,SSW,195,3.0,4.0,97,0.00,,,0.00,WeatherCatV1.10B1784,2013-01-09 08:21:00,
2013-01-09 00:26:00,41.2,40.1,29.61,SSE,161,1.0,1.0,96,0.00,,,0.00,WeatherCatV1.10B1784,2013-01-09 08:26:00,
2013-01-09 00:31:00,41.2,40.1,29.62,SSE,153,2.0,4.0,96,0.00,,,0.00,WeatherCatV1.10B1784,2013-01-09 08:31:00,
2013-01-09 00:36:00,41.0,39.9,29.61,South,170,3.0,3.0,96,0.00,,,0.00,WeatherCatV1.10B1784,2013-01-09 08:36:00,
2013-01-09 00:41:00,40.9,39.8,29.61,SSW,197,3.0,3.0,96,0.00,,,0.00,WeatherCatV1.10B1784,2013-01-09 08:41:00,
2013-01-09 00:46:00,40.9,39.8,29.61,South,174,5.0,5.0,96,0.00,,,0.00,WeatherCatV1.10B1784,2013-01-09 08:46:00,
2013-01-09 00:51:00,41.0,39.9,29.61,SSE,167,1.0,3.0,96,0.00,,,0.00,WeatherCatV1.10B1784,2013-01-09 08:51:00,
2013-01-09 00:56:00,40.7,39.4,29.61,ENE,72,3.0,3.0,95,0.00,,,0.00,WeatherCatV1.10B1784,2013-01-09 08:56:00,
2013-01-09 01:01:00,40.8,39.5,29.61,South,184,2.0,3.0,95,0.00,,,0.00,WeatherCatV1.10B1784,2013-01-09 09:01:00,
2013-01-09 01:06:00,40.7,39.4,29.62,SSW,203,1.0,2.0,95,0.00,,,0.00,WeatherCatV1.10B1784,2013-01-09 09:06:00,
2013-01-09 01:11:00,40.7,39.4,29.62,SE,124,3.0,3.0,95,0.00,,,0.00,WeatherCatV1.10B1784,2013-01-09 09:11:00,
2013-01-09 01:16:00,40.4,39.1,29.62,SE,132,2.0,3.0,95,0.00,,,0.00,WeatherCatV1.10B1784,2013-01-09 09:16:00,
2013-01-09 01:21:00,40.2,38.9,29.62,SSW,200,1.0,3.0,95,0.00,,,0.00,WeatherCatV1.10B1784,2013-01-09 09:21:00,
2013-01-09 01:26:00,40.4,39.4,29.62,SSE,165,2.0,4.0,96,0.00,,,0.00,WeatherCatV1.10B1784,2013-01-09 09:26:00,
2013-01-09 01:31:00,40.8,39.7,29.63,South,180,3.0,6.0,96,0.00,,,0.00,WeatherCatV1.10B1784,2013-01-09 09:31:00,
2013-01-09 01:36:00,41.3,39.7,29.63,South,184,8.0,9.0,94,0.00,,,0.00,WeatherCatV1.10B1784,2013-01-09 09:36:00,
2013-01-09 01:41:00,41.6,39.7,29.63,SW,222,2.0,5.0,93,0.00,,,0.00,WeatherCatV1.10B1784,2013-01-09 09:41:00,
2013-01-09 01:46:00,41.5,39.1,29.63,SE,145,2.0,4.0,91,0.00,,,0.00,WeatherCatV1.10B1784,2013-01-09 09:46:00,
2013-01-09 01:51:00,41.4,39.0,29.63,ESE,115,2.0,4.0,91,0.00,,,0.00,WeatherCatV1.10B1784,2013-01-09 09:51:00,
2013-01-09 01:56:00,41.0,38.9,29.63,SSE,158,1.0,1.0,92,0.00,,,0.00,WeatherCatV1.10B1784,2013-01-09 09:56:00,
2013-01-09 02:01:00,40.9,38.8,29.63,SE,143,1.0,1.0,92,0.00,,,0.00,WeatherCatV1.10B1784,2013-01-09 10:01:00,
2013-01-09 02:06:00,41.0,39.1,29.63,SSE,153,0.0,2.0,93,0.00,,,0.00,WeatherCatV1.10B1784,2013-01-09 10:06:00,
2013-01-09 02:11:00,41.1,39.2,29.64,SSE,155,1.0,5.0,93,0.00,,,0.00,WeatherCatV1.10B1784,2013-01-09 10:11:00,
2013-01-09 02:16:00,41.4,39.3,29.64,South,172,3.0,3.0,92,0.00,,,0.00,WeatherCatV1.10B1784,2013-01-09 10:16:00,
2013-01-09 02:21:00,41.2,38.8,29.63,SE,129,5.0,5.0,91,0.00,,,0.00,WeatherCatV1.10B1784,2013-01-09 10:21:00,
2013-01-09 02:26:00,40.6,38.5,29.63,SW,214,3.0,4.0,92,0.00,,,0.00,WeatherCatV1.10B1784,2013-01-09 10:26:00,
2013-01-09 02:31:00,41.2,39.3,29.63,South,175,2.0,4.0,93,0.00,,,0.00,WeatherCatV1.10B1784,2013-01-09 10:31:00,
2013-01-09 02:36:00,42.3,39.6,29.63,ESE,115,1.0,1.0,90,0.00,,,0.00,WeatherCatV1.10B1784,2013-01-09 10:36:00,
2013-01-09 02:41:00,42.2,38.9,29.63,ESE,103,1.0,3.0,88,0.00,,,0.00,WeatherCatV1.10B1784,2013-01-09 10:41:00,
2013-01-09 02:46:00,42.6,39.6,29.62,NW,316,0.0,3.0,89,0.00,,,0.00,WeatherCatV1.10B1784,2013-01-09 10:46:00,
2013-01-09 02:51:00,42.4,38.8,29.62,South,172,2.0,3.0,87,0.00,,,0.00,WeatherCatV1.10B1784,2013-01-09 10:51:00,
2013-01-09 02:56:00,41.5,38.2,29.62,SSE,162,3.0,3.0,88,0.00,,,0.00,WeatherCatV1.10B1784,2013-01-09 10:56:00,
2013-01-09 03:01:00,40.9,38.2,29.62,South,180,3.0,6.0,90,0.00,,,0.00,WeatherCatV1.10B1784,2013-01-09 11:01:00,
2013-01-09 03:06:00,40.9,38.5,29.61,SSE,166,4.0,4.0,91,0.00,,,0.00,WeatherCatV1.10B1784,2013-01-09 11:06:00,
2013-01-09 03:11:00,40.8,38.1,29.60,ESE,116,2.0,5.0,90,0.00,,,0.00,WeatherCatV1.10B1784,2013-01-09 11:11:00,
2013-01-09 03:16:00,40.8,38.1,29.61,SSE,151,2.0,5.0,90,0.00,,,0.00,WeatherCatV1.10B1784,2013-01-09 11:16:00,
2013-01-09 03:21:00,42.4,38.5,29.61,ESE,118,5.0,10.0,86,0.00,,,0.00,WeatherCatV1.10B1784,2013-01-09 11:21:00,
2013-01-09 03:26:00,44.0,38.2,29.62,SW,235,4.0,4.0,80,0.00,,,0.00,WeatherCatV1.10B1784,2013-01-09 11:26:00,
2013-01-09 03:31:00,43.9,37.8,29.62,ESE,105,3.0,8.0,79,0.00,,,0.00,WeatherCatV1.10B1784,2013-01-09 11:31:00,
2013-01-09 03:36:00,44.4,38.3,29.62,West,276,2.0,4.0,79,0.00,,,0.00,WeatherCatV1.10B1784,2013-01-09 11:36:00,
2013-01-09 03:41:00,43.7,38.3,29.62,South,181,2.0,2.0,81,0.00,,,0.00,WeatherCatV1.10B1784,2013-01-09 11:41:00,
2013-01-09 03:46:00,42.8,38.0,29.61,SSW,194,3.0,5.0,83,0.00,,,0.00,WeatherCatV1.10B1784,2013-01-09 11:46:00,
2013-01-09 03:51:00,42.2,37.7,29.62,SSW,200,3.0,5.0,84,0.00,,,0.00,WeatherCatV1.10B1784,2013-01-09 11:51:00,
2013-01-09 03:56:00,41.7,37.5,29.62,SSW,205,5.0,7.0,85,0.00,,,0.00,WeatherCatV1.10B1784,2013-01-09 11:56:00,
2013-01-09 04:01:00,43.3,38.2,29.63,NNW,339,4.0,13.0,82,0.00,,,0.00,WeatherCatV1.10B1784,2013-01-09 12:01:00,
2013-01-09 04:06:00,44.3,38.5,29.62,NW,323,0.0,6.0,80,0.00,,,0.00,WeatherCatV1.10B1784,2013-01-09 12:06:00,
2013-01-09 04:11:00,44.5,38.4,29.62,WNW,300,2.0,8.0,79,0.00,,,0.00,WeatherCatV1.10B1784,2013-01-09 12:11:00,
2013-01-09 04:16:00,44.8,38.4,29.62,WNW,295,1.0,9.0,78,0.00,,,0.00,WeatherCatV1.10B1784,2013-01-09 12:16:00,
2013-01-09 04:21:00,44.7,37.3,29.63,ESE,102,1.0,5.0,75,0.00,,,0.00,WeatherCatV1.10B1784,2013-01-09 12:21:00,
2013-01-09 04:26:00,44.9,37.1,29.62,SW,236,5.0,9.0,74,0.00,,,0.00,WeatherCatV1.10B1784,2013-01-09 12:26:00,
2013-01-09 04:31:00,44.7,36.9,29.62,SW,224,5.0,10.0,74,0.00,,,0.00,WeatherCatV1.10B1784,2013-01-09 12:31:00,
2013-01-09 04:36:00,44.7,36.9,29.62,West,278,2.0,8.0,74,0.00,,,0.00,WeatherCatV1.10B1784,2013-01-09 12:36:00,
2013-01-09 04:41:00,44.6,36.8,29.62,WNW,287,2.0,6.0,74,0.00,,,0.00,WeatherCatV1.10B1784,2013-01-09 12:41:00,
2013-01-09 04:46:00,44.4,37.0,29.62,WSW,243,0.0,2.0,75,0.00,,,0.00,WeatherCatV1.10B1784,2013-01-09 12:46:00,
2013-01-09 04:51:00,44.2,37.1,29.62,SW,222,2.0,5.0,76,0.00,,,0.00,WeatherCatV1.10B1784,2013-01-09 12:51:00,
2013-01-09 04:56:00,43.9,37.2,29.63,SW,228,6.0,7.0,77,0.00,,,0.00,WeatherCatV1.10B1784,2013-01-09 12:56:00,
2013-01-09 05:01:00,43.8,37.1,29.62,WSW,238,6.0,8.0,77,0.00,,,0.00,WeatherCatV1.10B1784,2013-01-09 13:01:00,
2013-01-09 05:06:00,43.8,37.1,29.62,WSW,250,3.0,6.0,77,0.00,,,0.00,WeatherCatV1.10B1784,2013-01-09 13:06:00,
2013-01-09 05:11:00,44.0,37.3,29.62,SW,217,3.0,8.0,77,0.00,,,0.00,WeatherCatV1.10B1784,2013-01-09 13:11:00,
2013-01-09 05:16:00,43.7,37.3,29.63,South,180,2.0,4.0,78,0.00,,,0.00,WeatherCatV1.10B1784,2013-01-09 13:16:00,
2013-01-09 05:21:00,43.5,37.1,29.63,SW,221,2.0,3.0,78,0.00,,,0.00,WeatherCatV1.10B1784,2013-01-09 13:21:00,
2013-01-09 05:26:00,43.4,37.0,29.62,WSW,238,1.0,3.0,78,0.00,,,0.00,WeatherCatV1.10B1784,2013-01-09 13:26:00,
2013-01-09 05:31:00,43.1,37.0,29.62,WSW,249,3.0,5.0,79,0.00,,,0.00,WeatherCatV1.10B1784,2013-01-09 13:31:00,
2013-01-09 05:36:00,43.3,36.9,29.62,WSW,238,6.0,8.0,78,0.00,,,0.00,WeatherCatV1.10B1784,2013-01-09 13:36:00,
2013-01-09 05:41:00,43.5,36.8,29.62,SW,228,5.0,12.0,77,0.00,,,0.00,WeatherCatV1.10B1784,2013-01-09 13:41:00,
2013-01-09 05:46:00,44.0,36.6,29.62,West,259,5.0,12.0,75,0.00,,,0.00,WeatherCatV1.10B1784,2013-01-09 13:46:00,
2013-01-09 05:51:00,44.3,36.5,29.63,SW,236,7.0,13.0,74,0.00,,,0.00,WeatherCatV1.10B1784,2013-01-09 13:51:00,
2013-01-09 05:56:00,44.3,36.5,29.63,WSW,246,7.0,11.0,74,0.00,,,0.00,WeatherCatV1.10B1784,2013-01-09 13:56:00,
2013-01-09 06:01:00,44.1,36.7,29.63,WNW,283,5.0,13.0,75,0.00,,,0.00,WeatherCatV1.10B1784,2013-01-09 14:01:00,
2013-01-09 06:06:00,44.0,36.6,29.63,WSW,248,4.0,10.0,75,0.00,,,0.00,WeatherCatV1.10B1784,2013-01-09 14:06:00,
2013-01-09 06:11:00,43.9,36.5,29.63,West,266,5.0,10.0,75,0.00,,,0.00,WeatherCatV1.10B1784,2013-01-09 14:11:00,
2013-01-09 06:16:00,43.9,36.5,29.63,WSW,255,7.0,15.0,75,0.00,,,0.00,WeatherCatV1.10B1784,2013-01-09 14:16:00,
2013-01-09 06:21:00,44.0,36.6,29.63,West,266,11.0,14.0,75,0.00,,,0.00,WeatherCatV1.10B1784,2013-01-09 14:21:00,
2013-01-09 06:26:00,44.1,36.4,29.62,SW,233,11.0,15.0,74,0.00,,,0.00,WeatherCatV1.10B1784,2013-01-09 14:26:00,
2013-01-09 06:31:00,44.0,36.3,29.63,SW,232,9.0,13.0,74,0.00,,,0.00,WeatherCatV1.10B1784,2013-01-09 14:31:00,
2013-01-09 06:36:00,44.0,36.3,29.63,WSW,249,13.0,14.0,74,0.00,,,0.00,WeatherCatV1.10B1784,2013-01-09 14:36:00,
2013-01-09 06:41:00,43.9,36.2,29.63,SW,223,6.0,10.0,74,0.00,,,0.00,WeatherCatV1.10B1784,2013-01-09 14:41:00,
2013-01-09 06:46:00,43.7,36.3,29.63,WSW,240,4.0,7.0,75,0.00,,,0.00,WeatherCatV1.10B1784,2013-01-09 14:46:00,
2013-01-09 06:51:00,43.6,36.2,29.62,SW,219,4.0,8.0,75,0.00,,,0.00,WeatherCatV1.10B1784,2013-01-09 14:51:00,
2013-01-09 06:56:00,43.4,36.0,29.63,SW,235,6.0,12.0,75,0.00,,,0.00,WeatherCatV1.10B1784,2013-01-09 14:56:00,
2013-01-09 07:01:00,43.3,36.3,29.63,SW,231,5.0,6.0,76,0.00,,,0.00,WeatherCatV1.10B1784,2013-01-09 15:01:00,
2013-01-09 07:06:00,43.3,36.3,29.63,SW,217,4.0,8.0,76,0.00,,,0.00,WeatherCatV1.10B1784,2013-01-09 15:06:00,
2013-01-09 07:11:00,43.2,36.2,29.64,SW,226,5.0,6.0,76,0.00,,,0.00,WeatherCatV1.10B1784,2013-01-09 15:11:00,
2013-01-09 07:16:00,43.2,36.2,29.63,West,263,4.0,6.0,76,0.00,,,0.00,WeatherCatV1.10B1784,2013-01-09 15:16:00,
2013-01-09 07:21:00,43.1,36.1,29.63,WSW,255,6.0,6.0,76,0.00,,,0.00,WeatherCatV1.10B1784,2013-01-09 15:21:00,
2013-01-09 07:26:00,43.0,36.0,29.63,WSW,238,4.0,7.0,76,0.00,,,0.00,WeatherCatV1.10B1784,2013-01-09 15:26:00,
2013-01-09 07:31:00,43.0,36.0,29.63,West,266,4.0,7.0,76,0.00,,,0.00,WeatherCatV1.10B1784,2013-01-09 15:31:00,
2013-01-09 07:36:00,42.9,35.9,29.63,SSW,203,2.0,8.0,76,0.00,,,0.00,WeatherCatV1.10B1784,2013-01-09 15:36:00,
2013-01-09 07:41:00,42.9,35.9,29.63,SW,217,5.0,7.0,76,0.00,,,0.00,WeatherCatV1.10B1784,2013-01-09 15:41:00,
2013-01-09 07:46:00,43.0,35.6,29.63,SW,236,6.0,7.0,75,0.00,,,0.00,WeatherCatV1.10B1784,2013-01-09 15:46:00,
2013-01-09 07:51:00,43.0,35.6,29.63,SW,217,7.0,8.0,75,0.00,,,0.00,WeatherCatV1.10B1784,2013-01-09 15:51:00,
2013-01-09 07:56:00,43.2,35.5,29.63,WSW,245,3.0,7.0,74,0.00,,,0.00,WeatherCatV1.10B1784,2013-01-09 15:56:00,
2013-01-09 08:01:00,43.0,35.6,29.64,WSW,246,3.0,7.0,75,0.00,,,0.00,WeatherCatV1.10B1784,2013-01-09 16:01:00,
2013-01-09 08:06:00,43.1,35.7,29.64,WSW,248,6.0,6.0,75,0.00,,,0.00,WeatherCatV1.10B1784,2013-01-09 16:06:00,
2013-01-09 08:11:00,43.1,35.7,29.64,West,263,1.0,8.0,75,0.00,,,0.00,WeatherCatV1.10B1784,2013-01-09 16:11:00,
2013-01-09 08:16:00,43.0,35.6,29.64,SSW,212,4.0,6.0,75,0.00,,,0.00,WeatherCatV1.10B1784,2013-01-09 16:16:00,
2013-01-09 08:21:00,42.9,35.5,29.64,SW,221,3.0,5.0,75,0.00,,,0.00,WeatherCatV1.10B1784,2013-01-09 16:21:00,
2013-01-09 08:26:00,42.9,35.5,29.64,WSW,245,10.0,11.0,75,0.00,,,0.00,WeatherCatV1.10B1784,2013-01-09 16:26:00,
2013-01-09 08:31:00,43.0,35.6,29.65,SW,235,6.0,7.0,75,0.00,,,0.00,WeatherCatV1.10B1784,2013-01-09 16:31:00,
2013-01-09 08:36:00,43.0,35.6,29.65,West,266,3.0,12.0,75,0.00,,,0.00,WeatherCatV1.10B1784,2013-01-09 16:36:00,
2013-01-09 08:41:00,42.9,35.5,29.65,WSW,246,4.0,7.0,75,0.00,,,0.00,WeatherCatV1.10B1784,2013-01-09 16:41:00,
2013-01-09 08:46:00,42.9,35.5,29.65,West,260,6.0,7.0,75,0.00,,,0.00,WeatherCatV1.10B1784,2013-01-09 16:46:00,
2013-01-09 08:51:00,42.8,35.4,29.65,West,278,3.0,6.0,75,0.00,,,0.00,WeatherCatV1.10B1784,2013-01-09 16:51:00,
2013-01-09 08:56:00,42.7,35.3,29.65,West,266,4.0,6.0,75,0.00,,,0.00,WeatherCatV1.10B1784,2013-01-09 16:56:00,
2013-01-09 09:01:00,42.5,35.5,29.66,WSW,239,5.0,6.0,76,0.00,,,0.00,WeatherCatV1.10B1784,2013-01-09 17:01:00,
2013-01-09 09:06:00,42.4,35.4,29.66,SW,228,3.0,4.0,76,0.00,,,0.00,WeatherCatV1.10B1784,2013-01-09 17:06:00,
2013-01-09 09:11:00,42.4,35.4,29.67,West,269,3.0,6.0,76,0.00,,,0.00,WeatherCatV1.10B1784,2013-01-09 17:11:00,
2013-01-09 09:16:00,42.5,35.5,29.67,West,262,3.0,5.0,76,0.00,,,0.00,WeatherCatV1.10B1784,2013-01-09 17:16:00,
2013-01-09 09:21:00,42.7,35.3,29.66,WNW,283,4.0,6.0,75,0.00,,,0.00,WeatherCatV1.10B1784,2013-01-09 17:21:00,
2013-01-09 09:26:00,42.9,35.5,29.67,WNW,283,4.0,5.0,75,0.00,,,0.00,WeatherCatV1.10B1784,2013-01-09 17:26:00,
2013-01-09 09:31:00,43.2,35.5,29.67,West,260,2.0,3.0,74,0.00,,,0.00,WeatherCatV1.10B1784,2013-01-09 17:31:00,
2013-01-09 09:36:00,43.3,35.6,29.67,SW,228,3.0,4.0,74,0.00,,,0.00,WeatherCatV1.10B1784,2013-01-09 17:36:00,
2013-01-09 09:41:00,43.6,35.9,29.67,West,262,2.0,6.0,74,0.00,,,0.00,WeatherCatV1.10B1784,2013-01-09 17:41:00,
2013-01-09 09:46:00,43.7,35.6,29.67,WNW,290,3.0,7.0,73,0.00,,,0.00,WeatherCatV1.10B1784,2013-01-09 17:46:00,
2013-01-09 09:51:00,43.8,35.7,29.67,WNW,293,9.0,12.0,73,0.00,,,0.00,WeatherCatV1.10B1784,2013-01-09 17:51:00,
2013-01-09 09:56:00,44.1,36.0,29.67,WSW,253,4.0,6.0,73,0.00,,,0.00,WeatherCatV1.10B1784,2013-01-09 17:56:00,
2013-01-09 10:01:00,44.2,36.1,29.67,SW,229,2.0,6.0,73,0.00,,,0.00,WeatherCatV1.10B1784,2013-01-09 18:01:00,
2013-01-09 10:06:00,44.4,35.9,29.67,West,259,4.0,5.0,72,0.00,,,0.00,WeatherCatV1.10B1784,2013-01-09 18:06:00,
2013-01-09 10:11:00,44.6,35.8,29.67,WSW,256,2.0,6.0,71,0.00,,,0.00,WeatherCatV1.10B1784,2013-01-09 18:11:00,
2013-01-09 10:16:00,44.8,36.3,29.67,West,280,1.0,2.0,72,0.00,,,0.00,WeatherCatV1.10B1784,2013-01-09 18:16:00,
2013-01-09 10:21:00,44.9,37.1,29.67,WNW,285,1.0,2.0,74,0.00,,,0.00,WeatherCatV1.10B1784,2013-01-09 18:21:00,
2013-01-09 10:26:00,44.9,37.8,29.68,WNW,303,2.0,2.0,76,0.00,,,0.00,WeatherCatV1.10B1784,2013-01-09 18:26:00,
2013-01-09 10:31:00,44.9,38.5,29.68,WNW,297,3.0,4.0,78,0.00,,,0.00,WeatherCatV1.10B1784,2013-01-09 18:31:00,
2013-01-09 10:36:00,44.8,38.7,29.68,WNW,293,3.0,4.0,79,0.00,,,0.00,WeatherCatV1.10B1784,2013-01-09 18:36:00,
2013-01-09 10:41:00,44.7,38.9,29.68,WNW,303,1.0,3.0,80,0.00,,,0.00,WeatherCatV1.10B1784,2013-01-09 18:41:00,
2013-01-09 10:44:00,44.7,38.9,29.68,WNW,291,2.0,2.0,80,0.00,,,0.00,WeatherCatV1.10B1784,2013-01-09 18:44:00,
2013-01-09 10:48:00,44.8,39.0,29.68,NW,319,0.0,2.0,80,0.00,,,0.00,WeatherCatV1.10B1784,2013-01-09 18:48:00,
2013-01-09 10:53:00,44.8,39.0,29.68,NW,321,0.0,1.0,80,0.00,,,0.00,WeatherCatV1.10B1784,2013-01-09 18:53:00,
2013-01-09 10:58:00,44.9,39.4,29.68,NW,304,2.0,3.0,81,0.00,,,0.00,WeatherCatV1.10B1784,2013-01-09 18:58:00,
2013-01-09 11:03:00,44.9,39.4,29.68,NNW,340,1.0,3.0,81,0.00,,,0.00,WeatherCatV1.10B1784,2013-01-09 19:03:00,
2013-01-09 11:08:00,44.8,39.3,29.68,NW,323,3.0,5.0,81,0.00,,,0.00,WeatherCatV1.10B1784,2013-01-09 19:08:00,
2013-01-09 11:13:00,44.8,39.6,29.68,NW,314,2.0,4.0,82,0.00,,,0.00,WeatherCatV1.10B1784,2013-01-09 19:13:00,
2013-01-09 11:18:00,44.8,40.0,29.68,WNW,303,0.0,2.0,83,0.00,,,0.00,WeatherCatV1.10B1784,2013-01-09 19:18:00,
2013-01-09 11:23:00,44.8,40.3,29.68,North,353,2.0,3.0,84,0.00,,,0.00,WeatherCatV1.10B1784,2013-01-09 19:23:00,
2013-01-09 11:28:00,44.7,40.2,29.68,NNW,345,2.0,4.0,84,0.00,,,0.00,WeatherCatV1.10B1784,2013-01-09 19:28:00,
2013-01-09 11:30:00,44.7,40.5,29.68,NNE,22,3.0,4.0,85,0.00,,,0.00,WeatherCatV1.10B1784,2013-01-09 19:30:00,
2013-01-09 11:35:00,44.6,40.7,29.68,NNW,347,1.0,3.0,86,0.00,,,0.00,WeatherCatV1.10B1784,2013-01-09 19:35:00,
2013-01-09 11:40:00,44.6,41.0,29.68,NNW,348,1.0,2.0,87,0.00,,,0.00,WeatherCatV1.10B1784,2013-01-09 19:40:00,
2013-01-09 11:45:00,44.7,41.1,29.68,NNW,335,0.0,0.0,87,0.00,,,0.00,WeatherCatV1.10B1784,2013-01-09 19:45:00,
2013-01-09 11:50:00,44.7,41.4,29.69,NNW,335,0.0,0.0,88,0.00,,,0.00,WeatherCatV1.10B1784,2013-01-09 19:50:00,
2013-01-09 11:55:00,44.9,41.6,29.69,NNW,336,0.0,1.0,88,0.00,,,0.00,WeatherCatV1.10B1784,2013-01-09 19:55:00,
2013-01-09 12:00:00,45.0,41.4,29.69,NNW,338,1.0,1.0,87,0.00,,,0.00,WeatherCatV1.10B1784,2013-01-09 20:00:00,
2013-01-09 12:05:00,44.8,41.2,29.69,NNE,20,0.0,1.0,87,0.00,,,0.00,WeatherCatV1.10B1784,2013-01-09 20:05:00,
2013-01-09 12:10:00,45.2,41.6,29.68,NNW,342,0.0,1.0,87,0.00,,,0.00,WeatherCatV1.10B1784,2013-01-09 20:10:00,
2013-01-09 12:15:00,45.2,41.6,29.68,West,281,0.0,0.0,87,0.00,,,0.00,WeatherCatV1.10B1784,2013-01-09 20:15:00,
2013-01-09 12:20:00,45.2,41.3,29.68,NNW,328,0.0,1.0,86,0.00,,,0.00,WeatherCatV1.10B1784,2013-01-09 20:20:00,
2013-01-09 12:25:00,45.1,40.2,29.68,SW,233,0.0,1.0,83,0.00,,,0.00,WeatherCatV1.10B1784,2013-01-09 20:25:00,
2013-01-09 12:30:00,45.2,40.3,29.68,West,260,1.0,1.0,83,0.00,,,0.00,WeatherCatV1.10B1784,2013-01-09 20:30:00,
2013-01-09 12:35:00,45.1,40.2,29.69,WNW,295,0.0,0.0,83,0.00,,,0.00,WeatherCatV1.10B1784,2013-01-09 20:35:00,
2013-01-09 12:40:00,45.3,40.8,29.69,WNW,295,0.0,0.0,84,0.00,,,0.00,WeatherCatV1.10B1784,2013-01-09 20:40:00,
2013-01-09 12:45:00,45.4,40.9,29.69,WNW,295,0.0,0.0,84,0.00,,,0.00,WeatherCatV1.10B1784,2013-01-09 20:45:00,
2013-01-09 12:50:00,45.4,40.9,29.69,WNW,295,0.0,0.0,84,0.00,,,0.00,WeatherCatV1.10B1784,2013-01-09 20:50:00,
2013-01-09 12:55:00,45.2,40.7,29.69,NE,46,0.0,0.0,84,0.00,,,0.00,WeatherCatV1.10B1784,2013-01-09 20:55:00,
2013-01-09 13:00:00,45.2,40.7,29.70,NNE,22,0.0,1.0,84,0.00,,,0.00,WeatherCatV1.10B1784,2013-01-09 21:00:00,
2013-01-09 13:05:00,44.9,40.7,29.69,NE,43,0.0,1.0,85,0.00,,,0.00,WeatherCatV1.10B1784,2013-01-09 21:05:00,
2013-01-09 13:10:00,45.0,40.8,29.70,NE,43,1.0,1.0,85,0.00,,,0.00,WeatherCatV1.10B1784,2013-01-09 21:10:00,
2013-01-09 13:15:00,44.7,40.2,29.70,NE,43,1.0,2.0,84,0.00,,,0.00,WeatherCatV1.10B1784,2013-01-09 21:15:00,
2013-01-09 13:20:00,44.6,40.4,29.70,NE,43,0.0,0.0,85,0.00,,,0.00,WeatherCatV1.10B1784,2013-01-09 21:20:00,
2013-01-09 13:25:00,44.5,40.3,29.70,East,84,1.0,2.0,85,0.00,,,0.00,WeatherCatV1.10B1784,2013-01-09 21:25:00,
2013-01-09 13:30:00,44.4,40.2,29.70,SE,124,0.0,3.0,85,0.00,,,0.00,WeatherCatV1.10B1784,2013-01-09 21:30:00,
2013-01-09 13:35:00,44.4,40.2,29.70,East,84,2.0,3.0,85,0.00,,,0.00,WeatherCatV1.10B1784,2013-01-09 21:35:00,
2013-01-09 13:40:00,44.4,40.5,29.70,SSE,164,1.0,1.0,86,0.00,,,0.00,WeatherCatV1.10B1784,2013-01-09 21:40:00,
2013-01-09 13:45:00,44.3,40.1,29.70,East,94,1.0,2.0,85,0.00,,,0.00,WeatherCatV1.10B1784,2013-01-09 21:45:00,
2013-01-09 13:50:00,44.2,40.0,29.70,East,79,0.0,2.0,85,0.00,,,0.00,WeatherCatV1.10B1784,2013-01-09 21:50:00,
2013-01-09 13:55:00,44.1,39.9,29.71,ENE,63,0.0,1.0,85,0.00,,,0.00,WeatherCatV1.10B1784,2013-01-09 21:55:00,
2013-01-09 14:00:00,44.3,40.1,29.71,ESE,114,2.0,2.0,85,0.00,,,0.00,WeatherCatV1.10B1784,2013-01-09 22:00:00,
2013-01-09 14:05:00,44.1,38.6,29.71,WSW,248,3.0,4.0,81,0.00,,,0.00,WeatherCatV1.10B1784,2013-01-09 22:05:00,
2013-01-09 14:10:00,44.3,37.6,29.71,WSW,246,5.0,7.0,77,0.00,,,0.00,WeatherCatV1.10B1784,2013-01-09 22:10:00,
2013-01-09 14:15:00,44.3,36.2,29.72,WNW,284,3.0,7.0,73,0.00,,,0.00,WeatherCatV1.10B1784,2013-01-09 22:15:00,
2013-01-09 14:20:00,44.3,36.2,29.72,SW,232,8.0,9.0,73,0.00,,,0.00,WeatherCatV1.10B1784,2013-01-09 22:20:00,
2013-01-09 14:25:00,44.2,35.8,29.72,West,262,2.0,11.0,72,0.00,,,0.00,WeatherCatV1.10B1784,2013-01-09 22:25:00,
2013-01-09 14:30:00,44.1,35.3,29.72,WSW,246,5.0,13.0,71,0.00,,,0.00,WeatherCatV1.10B1784,2013-01-09 22:30:00,
2013-01-09 14:35:00,44.1,35.0,29.72,WSW,246,5.0,9.0,70,0.00,,,0.00,WeatherCatV1.10B1784,2013-01-09 22:35:00,
2013-01-09 14:40:00,44.1,35.0,29.72,West,264,1.0,5.0,70,0.00,,,0.00,WeatherCatV1.10B1784,2013-01-09 22:40:00,
2013-01-09 14:45:00,44.1,35.0,29.72,SW,223,5.0,9.0,70,0.00,,,0.00,WeatherCatV1.10B1784,2013-01-09 22:45:00,
2013-01-09 14:50:00,44.1,35.0,29.72,West,276,4.0,8.0,70,0.00,,,0.00,WeatherCatV1.10B1784,2013-01-09 22:50:00,
2013-01-09 14:55:00,44.1,35.0,29.72,WSW,252,4.0,7.0,70,0.00,,,0.00,WeatherCatV1.10B1784,2013-01-09 22:55:00,
2013-01-09 15:00:00,44.1,35.3,29.72,SW,235,2.0,4.0,71,0.00,,,0.00,WeatherCatV1.10B1784,2013-01-09 23:00:00,
2013-01-09 15:05:00,44.0,34.9,29.73,SW,233,4.0,4.0,70,0.00,,,0.00,WeatherCatV1.10B1784,2013-01-09 23:05:00,
2013-01-09 15:10:00,44.1,35.0,29.73,West,278,4.0,11.0,70,0.00,,,0.00,WeatherCatV1.10B1784,2013-01-09 23:10:00,
2013-01-09 15:15:00,44.1,34.6,29.73,WNW,291,3.0,6.0,69,0.00,,,0.00,WeatherCatV1.10B1784,2013-01-09 23:15:00,
2013-01-09 15:20:00,44.3,34.0,29.73,WSW,239,4.0,8.0,67,0.00,,,0.00,WeatherCatV1.10B1784,2013-01-09 23:20:00,
2013-01-09 15:25:00,44.4,34.5,29.74,WSW,245,3.0,6.0,68,0.00,,,0.00,WeatherCatV1.10B1784,2013-01-09 23:25:00,
2013-01-09 15:30:00,44.3,34.0,29.74,SSW,211,7.0,7.0,67,0.00,,,0.00,WeatherCatV1.10B1784,2013-01-09 23:30:00,
2013-01-09 15:35:00,44.2,33.6,29.74,West,262,2.0,5.0,66,0.00,,,0.00,WeatherCatV1.10B1784,2013-01-09 23:35:00,
2013-01-09 15:40:00,44.1,33.1,29.74,WSW,237,4.0,6.0,65,0.00,,,0.00,WeatherCatV1.10B1784,2013-01-09 23:40:00,
2013-01-09 15:45:00,44.1,32.7,29.74,SW,214,5.0,7.0,64,0.00,,,0.00,WeatherCatV1.10B1784,2013-01-09 23:45:00,
2013-01-09 15:50:00,44.0,32.6,29.75,SW,226,5.0,9.0,64,0.00,,,0.00,WeatherCatV1.10B1784,2013-01-09 23:50:00,
2013-01-09 15:55:00,44.0,32.6,29.75,WSW,248,7.0,9.0,64,0.00,,,0.00,WeatherCatV1.10B1784,2013-01-09 23:55:00,
2013-01-09 16:00:00,43.9,32.9,29.75,SW,226,3.0,8.0,65,0.00,,,0.00,WeatherCatV1.10B1784,2013-01-10 00:00:00,
2013-01-09 16:05:00,43.7,32.7,29.75,SW,224,4.0,10.0,65,0.00,,,0.00,WeatherCatV1.10B1784,2013-01-10 00:05:00,
2013-01-09 16:10:00,43.6,33.0,29.75,SSW,201,7.0,10.0,66,0.00,,,0.00,WeatherCatV1.10B1784,2013-01-10 00:10:00,
2013-01-09 16:15:00,43.5,32.9,29.76,SSW,194,5.0,8.0,66,0.00,,,0.00,WeatherCatV1.10B1784,2013-01-10 00:15:00,
2013-01-09 16:20:00,43.3,32.7,29.76,SSW,212,5.0,5.0,66,0.00,,,0.00,WeatherCatV1.10B1784,2013-01-10 00:20:00,
2013-01-09 16:25:00,43.3,32.7,29.76,WSW,243,5.0,12.0,66,0.00,,,0.00,WeatherCatV1.10B1784,2013-01-10 00:25:00,
2013-01-09 16:30:00,43.2,33.0,29.76,WSW,245,3.0,12.0,67,0.00,,,0.00,WeatherCatV1.10B1784,2013-01-10 00:30:00,
2013-01-09 16:35:00,42.9,32.7,29.76,WSW,242,7.0,10.0,67,0.00,,,0.00,WeatherCatV1.10B1784,2013-01-10 00:35:00,
2013-01-09 16:40:00,42.7,32.9,29.76,WSW,256,3.0,6.0,68,0.00,,,0.00,WeatherCatV1.10B1784,2013-01-10 00:40:00,
2013-01-09 16:45:00,42.5,32.3,29.76,WNW,292,6.0,12.0,67,0.00,,,0.00,WeatherCatV1.10B1784,2013-01-10 00:45:00,
2013-01-09 16:50:00,42.4,32.6,29.76,SW,218,4.0,8.0,68,0.00,,,0.00,WeatherCatV1.10B1784,2013-01-10 00:50:00,
2013-01-09 16:55:00,42.3,32.5,29.76,SW,226,9.0,11.0,68,0.00,,,0.00,WeatherCatV1.10B1784,2013-01-10 00:55:00,
2013-01-09 17:00:00,42.3,32.5,29.76,WSW,240,3.0,11.0,68,0.00,,,0.00,WeatherCatV1.10B1784,2013-01-10 01:00:00,
2013-01-09 17:05:00,42.3,32.1,29.76,SW,228,7.0,13.0,67,0.00,,,0.00,WeatherCatV1.10B1784,2013-01-10 01:05:00,
2013-01-09 17:10:00,42.2,32.0,29.76,WSW,248,4.0,8.0,67,0.00,,,0.00,WeatherCatV1.10B1784,2013-01-10 01:10:00,
2013-01-09 17:15:00,42.2,32.0,29.77,WNW,287,4.0,8.0,67,0.00,,,0.00,WeatherCatV1.10B1784,2013-01-10 01:15:00,
2013-01-09 17:20:00,42.0,31.9,29.77,West,271,4.0,12.0,67,0.00,,,0.00,WeatherCatV1.10B1784,2013-01-10 01:20:00,
2013-01-09 17:25:00,42.0,31.9,29.77,West,262,7.0,9.0,67,0.00,,,0.00,WeatherCatV1.10B1784,2013-01-10 01:25:00,
2013-01-09 17:30:00,41.9,31.8,29.77,SW,233,6.0,12.0,67,0.00,,,0.00,WeatherCatV1.10B1784,2013-01-10 01:30:00,
2013-01-09 17:35:00,41.8,31.7,29.77,WSW,246,5.0,12.0,67,0.00,,,0.00,WeatherCatV1.10B1784,2013-01-10 01:35:00,
2013-01-09 17:40:00,41.8,31.7,29.77,WSW,253,3.0,11.0,67,0.00,,,0.00,WeatherCatV1.10B1784,2013-01-10 01:40:00,
2013-01-09 17:45:00,41.7,31.2,29.77,WSW,248,5.0,9.0,66,0.00,,,0.00,WeatherCatV1.10B1784,2013-01-10 01:45:00,
2013-01-09 17:50:00,41.8,31.3,29.77,West,263,4.0,11.0,66,0.00,,,0.00,WeatherCatV1.10B1784,2013-01-10 01:50:00,
2013-01-09 17:55:00,41.7,31.2,29.78,SSW,204,3.0,11.0,66,0.00,,,0.00,WeatherCatV1.10B1784,2013-01-10 01:55:00,
2013-01-09 18:00:00,41.7,31.2,29.78,WSW,242,4.0,8.0,66,0.00,,,0.00,WeatherCatV1.10B1784,2013-01-10 02:00:00,
2013-01-09 18:05:00,41.6,31.1,29.78,SW,235,5.0,8.0,66,0.00,,,0.00,WeatherCatV1.10B1784,2013-01-10 02:05:00,
2013-01-09 18:10:00,41.6,31.1,29.78,West,278,3.0,9.0,66,0.00,,,0.00,WeatherCatV1.10B1784,2013-01-10 02:10:00,
2013-01-09 18:15:00,41.4,31.3,29.78,WNW,287,5.0,9.0,67,0.00,,,0.00,WeatherCatV1.10B1784,2013-01-10 02:15:00,
2013-01-09 18:20:00,41.3,31.2,29.79,West,270,3.0,10.0,67,0.00,,,0.00,WeatherCatV1.10B1784,2013-01-10 02:20:00,
2013-01-09 18:25:00,41.2,31.5,29.79,WSW,238,3.0,9.0,68,0.00,,,0.00,WeatherCatV1.10B1784,2013-01-10 02:25:00,
2013-01-09 18:30:00,41.1,31.0,29.79,WNW,283,4.0,6.0,67,0.00,,,0.00,WeatherCatV1.10B1784,2013-01-10 02:30:00,
2013-01-09 18:35:00,41.1,31.4,29.79,SW,236,6.0,8.0,68,0.00,,,0.00,WeatherCatV1.10B1784,2013-01-10 02:35:00,
2013-01-09 18:40:00,41.1,31.0,29.79,West,269,7.0,8.0,67,0.00,,,0.00,WeatherCatV1.10B1784,2013-01-10 02:40:00,
2013-01-09 18:45:00,41.0,31.3,29.79,WNW,298,6.0,8.0,68,0.00,,,0.00,WeatherCatV1.10B1784,2013-01-10 02:45:00,
2013-01-09 18:50:00,41.0,31.3,29.80,SW,217,2.0,8.0,68,0.00,,,0.00,WeatherCatV1.10B1784,2013-01-10 02:50:00,
2013-01-09 18:55:00,41.0,31.3,29.80,WSW,243,5.0,9.0,68,0.00,,,0.00,WeatherCatV1.10B1784,2013-01-10 02:55:00,
2013-01-09 19:00:00,40.9,31.5,29.80,WSW,242,5.0,13.0,69,0.00,,,0.00,WeatherCatV1.10B1784,2013-01-10 03:00:00,
2013-01-09 19:05:00,41.0,31.6,29.80,WSW,256,8.0,12.0,69,0.00,,,0.00,WeatherCatV1.10B1784,2013-01-10 03:05:00,
2013-01-09 19:10:00,41.1,31.7,29.81,West,270,3.0,10.0,69,0.00,,,0.00,WeatherCatV1.10B1784,2013-01-10 03:10:00,
2013-01-09 19:15:00,41.1,31.7,29.81,SW,233,5.0,11.0,69,0.00,,,0.00,WeatherCatV1.10B1784,2013-01-10 03:15:00,
2013-01-09 19:20:00,41.3,31.5,29.81,WSW,256,11.0,13.0,68,0.00,,,0.00,WeatherCatV1.10B1784,2013-01-10 03:20:00,
2013-01-09 19:25:00,41.2,31.8,29.82,WSW,248,1.0,9.0,69,0.00,,,0.00,WeatherCatV1.10B1784,2013-01-10 03:25:00,
2013-01-09 19:30:00,41.1,31.7,29.82,WNW,287,6.0,8.0,69,0.00,,,0.00,WeatherCatV1.10B1784,2013-01-10 03:30:00,
2013-01-09 19:35:00,41.1,31.7,29.82,West,274,2.0,5.0,69,0.00,,,0.00,WeatherCatV1.10B1784,2013-01-10 03:35:00,
2013-01-09 19:40:00,40.9,32.2,29.83,West,273,2.0,3.0,71,0.00,,,0.00,WeatherCatV1.10B1784,2013-01-10 03:40:00,
2013-01-09 19:45:00,40.7,32.0,29.83,West,271,2.0,2.0,71,0.00,,,0.00,WeatherCatV1.10B1784,2013-01-10 03:45:00,
2013-01-09 19:50:00,40.5,31.8,29.83,SW,236,2.0,5.0,71,0.00,,,0.00,WeatherCatV1.10B1784,2013-01-10 03:50:00,
2013-01-09 19:55:00,40.3,31.7,29.83,West,259,1.0,3.0,71,0.00,,,0.00,WeatherCatV1.10B1784,2013-01-10 03:55:00,
2013-01-09 20:00:00,40.1,31.8,29.83,WSW,246,1.0,4.0,72,0.00,,,0.00,WeatherCatV1.10B1784,2013-01-10 04:00:00,
2013-01-09 20:05:00,40.1,31.8,29.83,SW,228,1.0,3.0,72,0.00,,,0.00,WeatherCatV1.10B1784,2013-01-10 04:05:00,
2013-01-09 20:10:00,40.1,31.5,29.84,SW,220,2.0,3.0,71,0.00,,,0.00,WeatherCatV1.10B1784,2013-01-10 04:10:00,
2013-01-09 20:15:00,40.0,31.7,29.84,WSW,248,2.0,3.0,72,0.00,,,0.00,WeatherCatV1.10B1784,2013-01-10 04:15:00,
2013-01-09 20:20:00,40.1,31.5,29.84,WSW,238,1.0,3.0,71,0.00,,,0.00,WeatherCatV1.10B1784,2013-01-10 04:20:00,
2013-01-09 20:25:00,40.0,31.7,29.84,WSW,242,2.0,3.0,72,0.00,,,0.00,WeatherCatV1.10B1784,2013-01-10 04:25:00,
2013-01-09 20:30:00,39.8,31.5,29.85,WSW,243,2.0,2.0,72,0.00,,,0.00,WeatherCatV1.10B1784,2013-01-10 04:30:00,
2013-01-09 20:35:00,39.9,31.6,29.85,West,267,2.0,3.0,72,0.00,,,0.00,WeatherCatV1.10B1784,2013-01-10 04:35:00,
2013-01-09 20:40:00,39.9,31.3,29.85,WSW,252,1.0,2.0,71,0.00,,,0.00,WeatherCatV1.10B1784,2013-01-10 04:40:00,
2013-01-09 20:45:00,39.7,31.4,29.85,WSW,248,1.0,3.0,72,0.00,,,0.00,WeatherCatV1.10B1784,2013-01-10 04:45:00,
2013-01-09 20:50:00,39.6,31.7,29.85,SW,233,3.0,5.0,73,0.00,,,0.00,WeatherCatV1.10B1784,2013-01-10 04:50:00,
2013-01-09 20:55:00,39.9,32.0,29.86,SW,225,4.0,4.0,73,0.00,,,0.00,WeatherCatV1.10B1784,2013-01-10 04:55:00,
2013-01-09 21:00:00,40.2,32.6,29.86,West,259,2.0,4.0,74,0.00,,,0.00,WeatherCatV1.10B1784,2013-01-10 05:00:00,
2013-01-09 21:01:00,40.2,32.6,29.86,West,269,4.0,4.0,74,0.00,,,0.00,WeatherCatV1.10B1784,2013-01-10 05:01:00,
2013-01-09 21:06:00,40.2,32.6,29.86,WNW,292,2.0,4.0,74,0.00,,,0.00,WeatherCatV1.10B1784,2013-01-10 05:06:00,
2013-01-09 21:11:00,40.2,33.6,29.87,West,259,0.0,5.0,77,0.00,,,0.00,WeatherCatV1.10B1784,2013-01-10 05:11:00,
2013-01-09 21:16:00,40.4,34.7,29.87,North,1,10.0,10.0,80,0.00,,,0.00,WeatherCatV1.10B1784,2013-01-10 05:16:00,
2013-01-09 21:21:00,41.1,36.6,29.87,NW,326,3.0,8.0,84,0.00,,,0.00,WeatherCatV1.10B1784,2013-01-10 05:21:00,
2013-01-09 21:26:00,40.9,36.1,29.87,NW,307,3.0,8.0,83,0.00,,,0.00,WeatherCatV1.10B1784,2013-01-10 05:26:00,
2013-01-09 21:31:00,40.6,35.8,29.88,WNW,295,10.0,10.0,83,0.00,,,0.00,WeatherCatV1.10B1784,2013-01-10 05:31:00,
2013-01-09 21:36:00,40.4,35.3,29.88,WNW,287,6.0,7.0,82,0.00,,,0.00,WeatherCatV1.10B1784,2013-01-10 05:36:00,
2013-01-09 21:41:00,39.9,35.2,29.88,WNW,288,5.0,9.0,83,0.00,,,0.00,WeatherCatV1.10B1784,2013-01-10 05:41:00,
2013-01-09 21:46:00,39.5,35.7,29.89,WNW,298,6.0,17.0,86,0.00,,,0.00,WeatherCatV1.10B1784,2013-01-10 05:46:00,
2013-01-09 21:51:00,39.3,35.8,29.89,West,271,3.0,12.0,87,0.00,,,0.00,WeatherCatV1.10B1784,2013-01-10 05:51:00,
2013-01-09 21:56:00,39.1,35.6,29.89,NW,316,9.0,9.0,87,0.00,,,0.00,WeatherCatV1.10B1784,2013-01-10 05:56:00,
2013-01-09 22:01:00,38.9,35.7,29.90,NNW,338,4.0,10.0,88,0.00,,,0.00,WeatherCatV1.10B1784,2013-01-10 06:01:00,
2013-01-09 22:06:00,38.8,35.6,29.90,WNW,298,3.0,8.0,88,0.00,,,0.00,WeatherCatV1.10B1784,2013-01-10 06:06:00,
2013-01-09 22:11:00,38.6,35.4,29.90,WNW,298,2.0,4.0,88,0.00,,,0.00,WeatherCatV1.10B1784,2013-01-10 06:11:00,
2013-01-09 22:16:00,38.4,35.2,29.90,West,264,2.0,6.0,88,0.00,,,0.00,WeatherCatV1.10B1784,2013-01-10 06:16:00,
2013-01-09 22:21:00,38.3,35.1,29.91,WSW,253,6.0,6.0,88,0.00,,,0.00,WeatherCatV1.10B1784,2013-01-10 06:21:00,
2013-01-09 22:26:00,38.3,35.1,29.91,West,271,3.0,4.0,88,0.00,,,0.00,WeatherCatV1.10B1784,2013-01-10 06:26:00,
2013-01-09 22:31:00,38.3,35.1,29.91,WNW,297,2.0,3.0,88,0.00,,,0.00,WeatherCatV1.10B1784,2013-01-10 06:31:00,
2013-01-09 22:36:00,38.4,35.4,29.91,WNW,295,3.0,3.0,89,0.00,,,0.00,WeatherCatV1.10B1784,2013-01-10 06:36:00,
2013-01-09 22:41:00,38.5,35.5,29.91,NNW,328,3.0,3.0,89,0.00,,,0.00,WeatherCatV1.10B1784,2013-01-10 06:41:00,
2013-01-09 22:46:00,38.5,35.8,29.91,NW,304,6.0,6.0,90,0.00,,,0.00,WeatherCatV1.10B1784,2013-01-10 06:46:00,
2013-01-09 22:51:00,38.5,35.8,29.92,WNW,285,3.0,7.0,90,0.00,,,0.00,WeatherCatV1.10B1784,2013-01-10 06:51:00,
2013-01-09 22:56:00,38.5,35.8,29.92,WNW,289,3.0,8.0,90,0.00,,,0.00,WeatherCatV1.10B1784,2013-01-10 06:56:00,
2013-01-09 23:01:00,38.5,36.1,29.92,WNW,292,5.0,7.0,91,0.00,,,0.00,WeatherCatV1.10B1784,2013-01-10 07:01:00,
2013-01-09 23:06:00,38.5,36.1,29.92,NW,304,5.0,5.0,91,0.00,,,0.00,WeatherCatV1.10B1784,2013-01-10 07:06:00,
2013-01-09 23:11:00,38.5,36.1,29.92,North,353,5.0,12.0,91,0.00,,,0.00,WeatherCatV1.10B1784,2013-01-10 07:11:00,
2013-01-09 23:16:00,38.4,36.0,29.92,NW,319,6.0,6.0,91,0.00,,,0.00,WeatherCatV1.10B1784,2013-01-10 07:16:00,
2013-01-09 23:21:00,38.3,36.2,29.92,WNW,301,3.0,8.0,92,0.00,,,0.00,WeatherCatV1.10B1784,2013-01-10 07:21:00,
2013-01-09 23:26:00,38.1,36.0,29.92,WNW,297,2.0,3.0,92,0.00,,,0.00,WeatherCatV1.10B1784,2013-01-10 07:26:00,
2013-01-09 23:31:00,37.9,35.8,29.92,WNW,287,1.0,3.0,92,0.00,,,0.00,WeatherCatV1.10B1784,2013-01-10 07:31:00,
2013-01-09 23:36:00,37.6,35.5,29.92,WNW,291,2.0,3.0,92,0.00,,,0.00,WeatherCatV1.10B1784,2013-01-10 07:36:00,
2013-01-09 23:41:00,37.5,35.4,29.92,West,276,3.0,5.0,92,0.00,,,0.00,WeatherCatV1.10B1784,2013-01-10 07:41:00,
2013-01-09 23:46:00,37.5,35.4,29.93,WNW,287,2.0,4.0,92,0.00,,,0.00,WeatherCatV1.10B1784,2013-01-10 07:46:00,
2013-01-09 23:51:00,37.4,35.3,29.93,West,278,2.0,6.0,92,0.00,,,0.00,WeatherCatV1.10B1784,2013-01-10 07:51:00,
2013-01-09 23:56:00,37.4,35.3,29.93,WSW,245,3.0,4.0,92,0.00,,,0.00,WeatherCatV1.10B1784,2013-01-10 07:56:00,